When you browse on this site, cookies collect data to enhance your experience and personalize the content and advertising you see.
Visit our Privacy Policy to learn more. By continuing to use the site, you agree to this use of cookies and data.
  • In Germany
  • List of Countries
  • For 7 days
  • Water Temperature
  • Weather Map
  • Weather Widgets
  • user-avatar
    Login

    Hourly Weather Sherpur

    Today, 23 January, Thursday

    Time Temperature Precipitation Wind Pressure Humidity
    00:00 -8°C° 0 mm 2 mps 609 mmHg 49%
    01:00 -8°C° 0 mm 2 mps 609 mmHg 47%
    02:00 -8°C° 0 mm 2 mps 608 mmHg 45%
    03:00 -9°C° 0 mm 2 mps 608 mmHg 44%
    04:00 -9°C° 0 mm 2 mps 607 mmHg 43%
    05:00 -9°C° 0 mm 2 mps 607 mmHg 42%
    06:00 -9°C° 0 mm 2 mps 607 mmHg 41%
    07:00 -9°C° 0 mm 2 mps 607 mmHg 40%
    08:00 -9°C° 0 mm 2 mps 607 mmHg 39%
    09:00 -8°C° 0 mm 2 mps 607 mmHg 41%
    10:00 -6°C° 0 mm 2 mps 607 mmHg 42%
    11:00 -5°C° 0 mm 2 mps 607 mmHg 44%
    12:00 -4°C° 0 mm 2 mps 607 mmHg 45%
    13:00 -1°C° 0 mm 1 mps 606 mmHg 46%
    14:00 0°C° 0 mm 1 mps 606 mmHg 47%
    15:00 -1°C° 0 mm 1 mps 605 mmHg 50%
    16:00 -2°C° 0 mm 1 mps 605 mmHg 52%
    17:00 -2°C° 0 mm 1 mps 604 mmHg 55%
    18:00 -3°C° 0 mm 1 mps 605 mmHg 54%
    19:00 -3°C° 0 mm 1 mps 605 mmHg 54%
    20:00 -3°C° 0 mm 1 mps 605 mmHg 53%
    21:00 -4°C° 0 mm 1 mps 605 mmHg 53%
    22:00 -4°C° 0 mm 1 mps 605 mmHg 52%
    23:00 -6°C° 0 mm 2 mps 606 mmHg 51%

    Tomorrow, 24 January, Friday

    Time Temperature Precipitation Wind Pressure Humidity
    00:00 -6°C° 0 mm 2 mps 605 mmHg 50%
    01:00 -6°C° 0 mm 2 mps 605 mmHg 49%
    02:00 -4°C° 0 mm 1 mps 605 mmHg 47%
    03:00 -4°C° 0 mm 1 mps 604 mmHg 47%
    04:00 -4°C° 0 mm 1 mps 604 mmHg 46%
    05:00 -4°C° 0 mm 1 mps 603 mmHg 46%
    06:00 -6°C° 0 mm 2 mps 603 mmHg 45%
    07:00 -6°C° 0 mm 2 mps 604 mmHg 44%
    08:00 -6°C° 0 mm 2 mps 604 mmHg 44%
    09:00 -4°C° 0 mm 2 mps 604 mmHg 44%
    10:00 -1°C° 0 mm 1 mps 604 mmHg 43%
    11:00 0°C° 0 mm 1 mps 604 mmHg 43%
    12:00 +1°C° 0 mm 1 mps 604 mmHg 46%
    13:00 +1°C° 0 mm 1 mps 604 mmHg 50%
    14:00 +2°C° 0 mm 1 mps 604 mmHg 53%
    15:00 +1°C° 0 mm 1 mps 604 mmHg 59%
    16:00 +1°C° 0 mm 1 mps 604 mmHg 65%
    17:00 +1°C° 0 mm 1 mps 604 mmHg 71%
    18:00 0°C° 0 mm 1 mps 604 mmHg 73%
    19:00 -1°C° 0 mm 1 mps 604 mmHg 74%
    20:00 -2°C° 0 mm 1 mps 604 mmHg 76%
    21:00 -2°C° 0 mm 1 mps 605 mmHg 77%
    22:00 -2°C° 0 mm 1 mps 605 mmHg 77%
    23:00 -3°C° 0 mm 1 mps 605 mmHg 78%

    Day after tomorrow, 25 January, Saturday

    Time Temperature Precipitation Wind Pressure Humidity
    00:00 -3°C° 0 mm 1 mps 605 mmHg 78%
    01:00 -3°C° 0 mm 1 mps 605 mmHg 79%
    02:00 -5°C° 0 mm 2 mps 605 mmHg 79%
    03:00 -5°C° 0 mm 2 mps 605 mmHg 78%
    04:00 -5°C° 0 mm 2 mps 605 mmHg 77%
    05:00 -5°C° 0 mm 2 mps 605 mmHg 76%
    06:00 -6°C° 0 mm 2 mps 605 mmHg 74%
    07:00 -6°C° 0 mm 2 mps 605 mmHg 71%
    08:00 -6°C° 0 mm 2 mps 606 mmHg 69%
    09:00 -5°C° 0 mm 2 mps 606 mmHg 66%
    10:00 -3°C° 0 mm 2 mps 606 mmHg 64%
    11:00 -2°C° 0 mm 2 mps 606 mmHg 61%
    12:00 -1°C° 0 mm 2 mps 606 mmHg 61%
    13:00 -1°C° 0 mm 2 mps 605 mmHg 62%
    14:00 +1°C° 0 mm 2 mps 605 mmHg 62%
    15:00 -1°C° 0 mm 2 mps 605 mmHg 64%
    16:00 -2°C° 0 mm 2 mps 605 mmHg 65%
    17:00 -2°C° 0 mm 2 mps 605 mmHg 67%
    18:00 -3°C° 0 mm 2 mps 605 mmHg 63%
    19:00 -4°C° 0 mm 2 mps 606 mmHg 59%
    20:00 -4°C° 0 mm 2 mps 606 mmHg 55%
    21:00 -5°C° 0 mm 2 mps 606 mmHg 53%
    22:00 -5°C° 0 mm 2 mps 606 mmHg 50%
    23:00 -5°C° 0 mm 2 mps 606 mmHg 48%

    26 January, Sunday

    Time Temperature Precipitation Wind Pressure Humidity
    00:00 -6°C° 0 mm 2 mps 606 mmHg 46%
    01:00 -6°C° 0 mm 2 mps 606 mmHg 44%
    02:00 -6°C° 0 mm 2 mps 605 mmHg 42%
    03:00 -7°C° 0 mm 2 mps 605 mmHg 41%
    04:00 -7°C° 0 mm 2 mps 605 mmHg 39%
    05:00 -7°C° 0 mm 2 mps 604 mmHg 38%
    06:00 -7°C° 0 mm 2 mps 604 mmHg 36%
    07:00 -8°C° 0 mm 2 mps 604 mmHg 34%
    08:00 -8°C° 0 mm 2 mps 604 mmHg 32%
    09:00 -6°C° 0 mm 2 mps 605 mmHg 33%
    10:00 -5°C° 0 mm 2 mps 605 mmHg 34%
    11:00 -3°C° 0 mm 2 mps 605 mmHg 35%
    12:00 0°C° 0 mm 1 mps 605 mmHg 37%
    13:00 0°C° 0 mm 1 mps 604 mmHg 38%
    14:00 +1°C° 0 mm 1 mps 603 mmHg 40%
    15:00 0°C° 0 mm 1 mps 603 mmHg 43%
    16:00 -1°C° 0 mm 1 mps 603 mmHg 46%
    17:00 -1°C° 0 mm 1 mps 603 mmHg 49%
    18:00 -2°C° 0 mm 1 mps 603 mmHg 47%
    19:00 -3°C° 0 mm 1 mps 603 mmHg 45%
    20:00 -4°C° 0 mm 1 mps 604 mmHg 43%
    21:00 -4°C° 0 mm 1 mps 604 mmHg 41%
    22:00 -6°C° 0 mm 2 mps 604 mmHg 39%
    23:00 -6°C° 0 mm 2 mps 604 mmHg 38%

    27 January, Monday

    Time Temperature Precipitation Wind Pressure Humidity
    00:00 -6°C° 0 mm 2 mps 604 mmHg 38%
    01:00 -7°C° 0 mm 2 mps 603 mmHg 38%
    02:00 -6°C° 0 mm 1 mps 603 mmHg 38%
    03:00 -7°C° 0 mm 2 mps 603 mmHg 39%
    04:00 -7°C° 0 mm 2 mps 603 mmHg 39%
    05:00 -7°C° 0 mm 2 mps 602 mmHg 40%
    06:00 -7°C° 0 mm 2 mps 603 mmHg 41%
    07:00 -7°C° 0 mm 2 mps 603 mmHg 41%
    08:00 -7°C° 0 mm 2 mps 603 mmHg 42%
    09:00 -6°C° 0 mm 2 mps 603 mmHg 42%
    10:00 -4°C° 0 mm 2 mps 604 mmHg 42%
    11:00 -3°C° 0 mm 2 mps 604 mmHg 43%
    12:00 -2°C° 0 mm 2 mps 604 mmHg 46%
    13:00 -2°C° 0 mm 2 mps 603 mmHg 50%
    14:00 -1°C° 0 mm 2 mps 603 mmHg 54%
    15:00 0°C° 0.1 mm 1 mps 603 mmHg 59%
    16:00 0°C° 0.1 mm 1 mps 603 mmHg 64%
    17:00 0°C° 0.1 mm 1 mps 603 mmHg 69%
    18:00 -1°C° 0 mm 1 mps 604 mmHg 69%
    19:00 -1°C° 0 mm 1 mps 604 mmHg 69%
    20:00 -2°C° 0 mm 1 mps 605 mmHg 69%
    21:00 -2°C° 0 mm 1 mps 605 mmHg 68%
    22:00 -2°C° 0 mm 1 mps 606 mmHg 67%
    23:00 -2°C° 0 mm 1 mps 606 mmHg 67%

    28 January, Tuesday

    Time Temperature Precipitation Wind Pressure Humidity
    00:00 -3°C° 0 mm 1 mps 606 mmHg 65%
    01:00 -5°C° 0 mm 2 mps 606 mmHg 64%
    02:00 -6°C° 0 mm 2 mps 605 mmHg 62%
    03:00 -6°C° 0 mm 2 mps 605 mmHg 61%
    04:00 -7°C° 0 mm 2 mps 605 mmHg 60%
    05:00 -7°C° 0 mm 2 mps 605 mmHg 59%
    06:00 -8°C° 0 mm 2 mps 605 mmHg 57%
    07:00 -8°C° 0 mm 2 mps 606 mmHg 56%
    08:00 -8°C° 0 mm 2 mps 606 mmHg 54%
    09:00 -7°C° 0 mm 2 mps 606 mmHg 52%
    10:00 -5°C° 0 mm 2 mps 606 mmHg 49%
    11:00 -4°C° 0 mm 2 mps 606 mmHg 47%
    12:00 -4°C° 0 mm 2 mps 606 mmHg 47%
    13:00 -3°C° 0 mm 2 mps 605 mmHg 47%
    14:00 -2°C° 0 mm 2 mps 605 mmHg 47%
    15:00 -3°C° 0 mm 2 mps 605 mmHg 49%
    16:00 -4°C° 0 mm 2 mps 605 mmHg 52%
    17:00 -5°C° 0 mm 2 mps 605 mmHg 55%
    18:00 -6°C° 0 mm 2 mps 605 mmHg 54%
    19:00 -7°C° 0 mm 2 mps 605 mmHg 53%
    20:00 -7°C° 0 mm 2 mps 606 mmHg 52%
    21:00 -8°C° 0 mm 2 mps 606 mmHg 50%
    22:00 -8°C° 0 mm 2 mps 606 mmHg 49%
    23:00 -8°C° 0 mm 2 mps 606 mmHg 47%
    Show more